Weather History for KAUW - July, 2013

Change the Weather History Date:

Monday, July 8, 2013

  Actual Average Record
Temperature  
Mean Temperature 77 °F 69 °F  
Max Temperature 86 °F 80 °F 101 °F (1936)
Min Temperature 67 °F 59 °F 44 °F (1908)
Degree Days  
Heating Degree Days 0 1  
Month to date heating degree days 3 8  
Since 1 June heating degree days 89 97  
Since 1 July heating degree days 3 8  
Cooling Degree Days 12 5  
Month to date cooling degree days 54 40  
Year to date cooling degree days 175 144  
Since 1 June cooling degree days 138 125  
Growing Degree Days 25 (Base 50)    
Moisture  
Dew Point 68 °F    
Average Humidity 76    
Maximum Humidity 97    
Minimum Humidity 55    
Precipitation  
Precipitation 1.82 in 0.12 in 1.82 in (2013)
Month to date precipitation 2.39 0.97  
Year to date precipitation 22.67 15.19  
Snow  
Snow 0.00 in 0.00 in 0.00 in ()
Month to date snowfall 0.0 0.0  
Since 1 June snowfall 0.0 0.0  
Since 1 July snowfall 0.0 0.0  
Snow Depth 0.00 in    
Sea Level Pressure  
Sea Level Pressure 29.92 in    
Wind  
Wind Speed 3 mph (ENE)    
Max Wind Speed 16 mph    
Max Gust Speed 22 mph    
Visibility 7 miles    
Events Fog , Rain , Thunderstorm    
T = Trace of Precipitation, MM = Missing Value Source: NWS Daily Summary

Daily Weather History Graph

Daily Weather History Graph

Search for Another Location

Airport or City:

Trip Planner

Search our weather history database for the weather conditions in past years. The results will help you decide how hot, cold, wet, or windy it might be!

Date:

Astronomy

Jul. 08, 2013 Rise Set
Actual Time 5:20 AM CDT 8:46 PM CDT
Civil Twilight 4:44 AM CDT 9:22 PM CDT
Nautical Twilight 3:56 AM CDT 10:10 PM CDT
Astronomical Twilight 2:55 AM CDT 11:11 PM CDT
Moon 5:54 AM CDT (7/8) 8:43 PM CDT (7/8)
Length of Visible Light 16h 38m
Length of Day
15h 25m
New Moon, 0% of the Moon is Illuminated
Jul 8
New Moon
Jul 15
First Quarter
Jul 22
Full
Jul 29
Last Quarter
Aug 6
New

Hourly Weather History & Observations

Time (CDT) Temp. Heat Index Dew Point Humidity Pressure Visibility Wind Dir Wind Speed Gust Speed Precip Events Conditions
12:33 AM 75.2 °F - 69.8 °F 83% 29.90 in 9.0 mi South 3.5 mph - N/A Thunderstorm Overcast
12:42 AM 75.2 °F - 71.6 °F 89% 29.91 in 1.8 mi WSW 13.8 mph 19.6 mph 0.18 in Rain , Thunderstorm Heavy Rain
12:54 AM 73.9 °F - 71.1 °F 91% 29.90 in 2.5 mi SSW 4.6 mph - 0.30 in Rain , Thunderstorm Light Thunderstorms and Rain
1:01 AM 73.4 °F - 71.6 °F 94% 29.91 in 5.0 mi Calm Calm - 0.01 in Rain , Thunderstorm Light Rain
1:23 AM 71.6 °F - 71.6 °F 100% 29.90 in 2.0 mi Calm Calm - 0.09 in Rain , Thunderstorm Heavy Rain
1:32 AM 73.4 °F - 71.6 °F 94% 29.89 in 5.0 mi ENE 4.6 mph - 0.11 in Rain , Thunderstorm Thunderstorms and Rain
1:54 AM 72.0 °F - 71.1 °F 97% 29.88 in 6.0 mi NW 8.1 mph - 0.11 in Thunderstorm Overcast
2:06 AM 71.6 °F - 69.8 °F 94% 29.89 in 6.0 mi North 11.5 mph - N/A Thunderstorm Overcast
2:33 AM 69.8 °F - 68.0 °F 94% 29.91 in 7.0 mi NW 8.1 mph 17.3 mph 0.01 in Rain , Thunderstorm Light Rain
2:54 AM 68.0 °F - 66.0 °F 93% 29.88 in 2.5 mi NNW 4.6 mph - 0.19 in Rain , Thunderstorm Heavy Thunderstorms and Rain
2:59 AM 68.0 °F - 66.2 °F 94% 29.90 in 1.8 mi North 10.4 mph - 0.06 in Rain , Thunderstorm Heavy Thunderstorms and Rain
3:08 AM 68.0 °F - 66.2 °F 94% 29.92 in 1.8 mi North 11.5 mph - 0.24 in Rain , Thunderstorm Heavy Thunderstorms and Rain
3:18 AM 66.2 °F - 66.2 °F 100% 29.91 in 0.5 mi North 12.7 mph 21.9 mph 0.80 in Fog , Rain , Thunderstorm Heavy Thunderstorms and Rain
3:30 AM 66.2 °F - 66.2 °F 100% 29.90 in 1.5 mi East 6.9 mph - 1.02 in Rain , Thunderstorm Heavy Thunderstorms and Rain
3:37 AM 66.2 °F - 66.2 °F 100% 29.90 in 2.5 mi ENE 8.1 mph - 1.09 in Rain , Thunderstorm Heavy Thunderstorms and Rain
3:50 AM 66.2 °F - 66.2 °F 100% 29.90 in 1.5 mi NNE 4.6 mph - 1.29 in Rain , Thunderstorm Heavy Thunderstorms and Rain
3:54 AM 68.0 °F - 66.9 °F 96% 29.88 in 1.5 mi East 6.9 mph - 1.37 in Rain , Thunderstorm Heavy Thunderstorms and Rain
4:04 AM 68.0 °F - 66.2 °F 94% 29.89 in 3.0 mi SE 9.2 mph - 0.06 in Rain , Thunderstorm Rain
4:13 AM 68.0 °F - 66.2 °F 94% 29.90 in 4.0 mi SSE 9.2 mph - 0.08 in Rain Light Rain
4:54 AM 68.0 °F - 66.0 °F 93% 29.88 in 10.0 mi Calm Calm - 0.15 in   Overcast
5:54 AM 68.0 °F - 66.9 °F 96% 29.89 in 6.0 mi Calm Calm - N/A   Mostly Cloudy
6:54 AM 68.0 °F - 66.9 °F 96% 29.88 in 10.0 mi Calm Calm - N/A   Clear
7:26 AM 69.8 °F - 66.2 °F 88% 29.90 in 10.0 mi ESE 4.6 mph - N/A   Partly Cloudy
7:38 AM 69.8 °F - 66.2 °F 88% 29.91 in 10.0 mi ESE 4.6 mph - N/A   Mostly Cloudy
7:54 AM 69.1 °F - 66.9 °F 93% 29.91 in 10.0 mi East 5.8 mph - N/A   Overcast
8:54 AM 70.0 °F - 68.0 °F 93% 29.94 in 9.0 mi East 5.8 mph - N/A   Overcast
9:03 AM 69.8 °F - 68.0 °F 94% 29.95 in 8.0 mi East 6.9 mph - N/A   Overcast
9:43 AM 69.8 °F - 68.0 °F 94% 29.96 in 2.0 mi ESE 5.8 mph - 0.00 in Rain Light Rain
9:54 AM 70.0 °F - 68.0 °F 93% 29.95 in 4.0 mi SE 3.5 mph - 0.00 in Rain Light Rain
10:03 AM 71.6 °F - 69.8 °F 94% 29.96 in 10.0 mi SE 3.5 mph - 0.00 in   Overcast
10:54 AM 73.9 °F - 68.0 °F 82% 29.95 in 10.0 mi Calm Calm - 0.00 in   Overcast
11:29 AM 75.2 °F - 68.0 °F 78% 29.96 in 10.0 mi Calm Calm - N/A   Mostly Cloudy
11:54 AM 77.0 °F - 68.0 °F 74% 29.94 in 10.0 mi Variable 3.5 mph - N/A   Mostly Cloudy
12:20 PM 78.8 °F - 66.2 °F 65% 29.95 in 10.0 mi West 6.9 mph - N/A   Scattered Clouds
12:31 PM 78.8 °F - 68.0 °F 69% 29.95 in 10.0 mi WNW 5.8 mph - N/A   Mostly Cloudy
12:54 PM 81.0 °F 83.8 °F 68.0 °F 65% 29.94 in 10.0 mi NW 6.9 mph - N/A   Mostly Cloudy
1:26 PM 80.6 °F 82.7 °F 66.2 °F 61% 29.96 in 10.0 mi Variable 6.9 mph - N/A   Mostly Cloudy
1:54 PM 80.1 °F 82.3 °F 66.9 °F 64% 29.95 in 10.0 mi North 5.8 mph - N/A   Mostly Cloudy
2:54 PM 82.9 °F 85.0 °F 66.0 °F 56% 29.95 in 10.0 mi Variable 5.8 mph - N/A   Partly Cloudy
3:54 PM 84.0 °F 87.0 °F 68.0 °F 58% 29.94 in 10.0 mi ENE 6.9 mph - N/A   Mostly Cloudy
4:54 PM 84.9 °F 87.6 °F 66.9 °F 55% 29.94 in 10.0 mi North 5.8 mph - N/A   Mostly Cloudy
5:54 PM 84.0 °F 86.3 °F 66.0 °F 55% 29.94 in 10.0 mi Calm Calm - N/A   Mostly Cloudy
6:54 PM 82.0 °F 84.5 °F 66.9 °F 60% 29.95 in 10.0 mi Calm Calm - N/A   Clear
7:54 PM 82.0 °F 84.5 °F 66.9 °F 60% 29.95 in 10.0 mi Calm Calm - N/A   Clear
8:54 PM 79.0 °F - 69.1 °F 72% 29.97 in 10.0 mi Calm Calm - N/A   Scattered Clouds
9:54 PM 75.9 °F - 70.0 °F 82% 29.97 in 10.0 mi Calm Calm - N/A   Partly Cloudy
10:54 PM 73.0 °F - 69.1 °F 87% 29.98 in 10.0 mi ESE 3.5 mph - N/A   Clear
11:54 PM 73.0 °F - 68.0 °F 84% 29.98 in 10.0 mi SSE 3.5 mph - N/A   Clear